QPF
0.06 0.06 0.06 0.07 0.08 0.07 0.06 0.05 0.05 0.06 0.06 0.05 0.03 0.02 0.01 0.01 0.02 0.02 0.02 0.03 0.03 0.03 0.02 0.01 0.01 0.01 0.02 0.02 0.02 0.04 0.09 0.08 0.02 0.00 0.00 0.01 0.01 0.02
0.05 0.06 0.05 0.05 0.06 0.07 0.07 0.06 0.05 0.04 0.05 0.04 0.03 0.02 0.02 0.01 0.01 0.02 0.02 0.03 0.03 0.03 0.03 0.02 0.02 0.02 0.03 0.04 0.03 0.04 0.06 0.06 0.03 0.01 0.01 0.01 0.01 0.02
0.05 0.05 0.05 0.04 0.04 0.05 0.06 0.06 0.06 0.05 0.04 0.04 0.04 0.03 0.02 0.02 0.02 0.01 0.01 0.01 0.02 0.02 0.02 0.02 0.01 0.01 0.02 0.04 0.04 0.04 0.04 0.03 0.02 0.01 0.01 0.01 0.01 0.02
0.05 0.04 0.04 0.05 0.05 0.05 0.04 0.04 0.05 0.05 0.04 0.04 0.03 0.03 0.03 0.02 0.02 0.02 0.01 0.01 0.02 0.02 0.02 0.02 0.01 0.01 0.01 0.02 0.03 0.03 0.03 0.02 0.02 0.01 0.01 0.01 0.01 0.01
0.05 0.04 0.04 0.04 0.04 0.04 0.05 0.05 0.05 0.04 0.04 0.04 0.04 0.04 0.04 0.03 0.03 0.02 0.02 0.02 0.01 0.02 0.02 0.02 0.02 0.01 0.01 0.01 0.02 0.02 0.02 0.02 0.01 0.01 0.01 0.02 0.01 0.01
0.03 0.03 0.03 0.03 0.03 0.03 0.03 0.03 0.04 0.05 0.05 0.05 0.05 0.05 0.05 0.04 0.03 0.02 0.02 0.02 0.01 0.01 0.01 0.01 0.02 0.02 0.01 0.01 0.01 0.01 0.02 0.02 0.02 0.01 0.01 0.01 0.01 0.01
0.02 0.02 0.02 0.02 0.03 0.03 0.02 0.03 0.03 0.04 0.04 0.04 0.04 0.04 0.04 0.03 0.02 0.02 0.02 0.02 0.02 0.02 0.01 0.01 0.01 0.01 0.01 0.01 0.01 0.01 0.01 0.02 0.02 0.02 0.02 0.02 0.02 0.02
0.02 0.01 0.01 0.01 0.01 0.02 0.02 0.02 0.03 0.03 0.03 0.03 0.03 0.03 0.03 0.03 0.02 0.02 0.02 0.02 0.02 0.02 0.02 0.02 0.02 0.02 0.01 0.01 0.02 0.02 0.01 0.02 0.02 0.02 0.02 0.02 0.02 0.02
0.01 0.01 0.01 0.01 0.01 0.01 0.01 0.01 0.02 0.03 0.04 0.04 0.03 0.03 0.03 0.03 0.03 0.03 0.02 0.02 0.02 0.02 0.02 0.02 0.02 0.02 0.02 0.02 0.02 0.02 0.02 0.02 0.02 0.02 0.02 0.02 0.02 0.02
0.01 0.01 0.01 0.01 0.01 0.01 0.01 0.01 0.01 0.02 0.02 0.02 0.03 0.03 0.04 0.04 0.03 0.03 0.03 0.03 0.03 0.02 0.02 0.02 0.01 0.01 0.02 0.02 0.03 0.02 0.02 0.02 0.01 0.01 0.01 0.01 0.02 0.02
0.03 0.03 0.02 0.02 0.02 0.01 0.01 0.01 0.01 0.01 0.02 0.03 0.03 0.04 0.05 0.05 0.04 0.04 0.03 0.03 0.03 0.02 0.02 0.01 0.01 0.01 0.01 0.02 0.02 0.02 0.02 0.01 0.01 0.01 0.01 0.01 0.02 0.02
0.02 0.03 0.04 0.03 0.03 0.02 0.02 0.01 0.01 0.01 0.01 0.02 0.02 0.03 0.03 0.04 0.04 0.03 0.03 0.03 0.03 0.02 0.01 0.01 0.02 0.02 0.01 0.01 0.01 0.01 0.01 0.02 0.02 0.02 0.01 0.02 0.02 0.03
0.02 0.02 0.03 0.03 0.03 0.03 0.02 0.01 0.01 0.01 0.01 0.01 0.01 0.02 0.02 0.02 0.02 0.02 0.02 0.02 0.03 0.03 0.02 0.02 0.03 0.02 0.02 0.01 0.01 0.01 0.01 0.01 0.01 0.02 0.02 0.02 0.03 0.03
0.01 0.02 0.02 0.02 0.02 0.02 0.02 0.02 0.02 0.02 0.01 0.01 0.02 0.02 0.02 0.02 0.02 0.02 0.02 0.02 0.02 0.02 0.02 0.02 0.03 0.03 0.03 0.02 0.01 0.01 0.01 0.01 0.01 0.01 0.01 0.02 0.03 0.04
0.01 0.01 0.01 0.01 0.01 0.01 0.01 0.01 0.01 0.01 0.01 0.01 0.01 0.01 0.01 0.02 0.02 0.02 0.02 0.02 0.02 0.02 0.01 0.01 0.02 0.03 0.04 0.03 0.02 0.01 0.01 0.01 0.01 0.01 0.01 0.01 0.02 0.03
0.01 0.01 0.01 0.01 0.01 0.01 0.01 0.01 0.01 0.01 0.01 0.02 0.02 0.02 0.02 0.02 0.02 0.02 0.02 0.02 0.02 0.02 0.01 0.01 0.01 0.02 0.02 0.02 0.02 0.02 0.01 0.01 0.01 0.01 0.02 0.01 0.02 0.02
0.01 0.01 0.01 0.01 0.01 0.01 0.01 0.01 0.01 0.02 0.02 0.02 0.02 0.02 0.02 0.03 0.02 0.02 0.02 0.02 0.02 0.02 0.01 0.01 0.01 0.01 0.02 0.02 0.02 0.02 0.01 0.01 0.01 0.02 0.02 0.03 0.02 0.02
0.01 0.01 0.01 0.01 0.01 0.01 0.01 0.01 0.01 0.02 0.02 0.02 0.02 0.02 0.03 0.03 0.03 0.02 0.02 0.02 0.02 0.02 0.01 0.01 0.01 0.02 0.02 0.02 0.02 0.02 0.02 0.02 0.01 0.02 0.03 0.04 0.03 0.02
0.01 0.01 0.01 0.01 0.01 0.01 0.01 0.01 0.01 0.01 0.01 0.02 0.02 0.02 0.03 0.03 0.03 0.02 0.02 0.02 0.02 0.01 0.01 0.01 0.01 0.03 0.03 0.02 0.01 0.01 0.01 0.02 0.02 0.02 0.02 0.03 0.03 0.02
0.01 0.01 0.01 0.01 0.01 0.01 0.01 0.00 0.00 0.01 0.01 0.01 0.02 0.02 0.02 0.02 0.02 0.02 0.02 0.02 0.02 0.02 0.01 0.01 0.01 0.02 0.04 0.03 0.02 0.01 0.01 0.02 0.02 0.03 0.03 0.03 0.03 0.03
0.01 0.01 0.01 0.01 0.01 0.01 0.00 0.00 0.00 0.00 0.00 0.01 0.01 0.01 0.02 0.02 0.02 0.02 0.02 0.02 0.02 0.02 0.01 0.01 0.01 0.02 0.02 0.03 0.03 0.02 0.01 0.02 0.03 0.04 0.04 0.04 0.04 0.04
0.01 0.01 0.01 0.01 0.01 0.01 0.01 0.01 0.01 0.00 0.01 0.01 0.01 0.01 0.01 0.01 0.02 0.02 0.02 0.02 0.01 0.01 0.01 0.01 0.01 0.02 0.02 0.03 0.03 0.02 0.02 0.02 0.03 0.04 0.04 0.05 0.05 0.05
0.01 0.01 0.01 0.01 0.01 0.01 0.01 0.01 0.01 0.01 0.01 0.01 0.01 0.01 0.01 0.02 0.02 0.02 0.01 0.01 0.01 0.01 0.02 0.02 0.02 0.02 0.02 0.03 0.03 0.03 0.03 0.02 0.03 0.03 0.04 0.04 0.03 0.03
MSLP
1021.21 1021.74 1022.30 1022.91 1023.56 1024.25 1024.96 1025.69 1026.42 1027.13 1027.79 1028.39 1028.90 1029.28 1029.52 1029.62 1029.57 1029.39 1029.11 1028.76 1028.38 1028.01 1027.65 1027.33 1027.03 1026.76 1026.47 1026.16 1025.81 1025.40 1024.95 1024.45 1023.93 1023.40 1022.88 1022.38 1021.88 1021.38
1021.75 1022.22 1022.71 1023.22 1023.78 1024.37 1025.01 1025.68 1026.37 1027.07 1027.76 1028.39 1028.93 1029.36 1029.64 1029.77 1029.74 1029.57 1029.28 1028.92 1028.51 1028.10 1027.70 1027.35 1027.02 1026.70 1026.39 1026.05 1025.66 1025.23 1024.74 1024.21 1023.66 1023.11 1022.55 1022.02 1021.49 1020.95
1022.38 1022.84 1023.29 1023.75 1024.23 1024.75 1025.32 1025.93 1026.58 1027.24 1027.90 1028.52 1029.07 1029.50 1029.79 1029.92 1029.89 1029.71 1029.40 1029.02 1028.59 1028.15 1027.72 1027.33 1026.97 1026.62 1026.27 1025.90 1025.48 1025.01 1024.48 1023.92 1023.34 1022.75 1022.16 1021.59 1021.02 1020.45
1023.02 1023.52 1023.98 1024.42 1024.87 1025.34 1025.85 1026.40 1026.99 1027.60 1028.21 1028.79 1029.29 1029.69 1029.95 1030.06 1030.01 1029.81 1029.49 1029.09 1028.64 1028.18 1027.74 1027.32 1026.92 1026.54 1026.15 1025.73 1025.27 1024.76 1024.20 1023.60 1022.98 1022.35 1021.72 1021.11 1020.52 1019.92
1023.61 1024.17 1024.67 1025.14 1025.59 1026.05 1026.52 1027.02 1027.54 1028.08 1028.62 1029.12 1029.56 1029.90 1030.11 1030.17 1030.09 1029.88 1029.55 1029.14 1028.68 1028.21 1027.75 1027.31 1026.88 1026.46 1026.03 1025.57 1025.06 1024.50 1023.89 1023.24 1022.58 1021.91 1021.26 1020.62 1019.99 1019.37
1024.09 1024.74 1025.31 1025.83 1026.31 1026.76 1027.20 1027.66 1028.11 1028.58 1029.03 1029.45 1029.80 1030.07 1030.22 1030.24 1030.13 1029.90 1029.57 1029.16 1028.71 1028.24 1027.77 1027.31 1026.85 1026.39 1025.90 1025.38 1024.82 1024.20 1023.54 1022.85 1022.14 1021.44 1020.75 1020.08 1019.43 1018.79
1024.47 1025.20 1025.84 1026.41 1026.92 1027.38 1027.81 1028.21 1028.61 1028.99 1029.36 1029.69 1029.96 1030.15 1030.25 1030.23 1030.10 1029.87 1029.55 1029.15 1028.72 1028.25 1027.78 1027.30 1026.81 1026.29 1025.75 1025.16 1024.53 1023.85 1023.13 1022.39 1021.64 1020.90 1020.18 1019.49 1018.82 1018.17
1024.75 1025.54 1026.24 1026.85 1027.38 1027.84 1028.25 1028.62 1028.95 1029.26 1029.55 1029.79 1029.99 1030.12 1030.17 1030.13 1030.00 1029.78 1029.48 1029.11 1028.69 1028.24 1027.76 1027.26 1026.73 1026.16 1025.56 1024.90 1024.19 1023.44 1022.66 1021.87 1021.08 1020.30 1019.56 1018.84 1018.15 1017.48
1024.97 1025.79 1026.51 1027.14 1027.68 1028.13 1028.51 1028.83 1029.11 1029.35 1029.57 1029.75 1029.89 1029.98 1030.00 1029.95 1029.83 1029.63 1029.36 1029.03 1028.64 1028.19 1027.71 1027.19 1026.61 1025.99 1025.31 1024.58 1023.80 1022.99 1022.15 1021.30 1020.47 1019.66 1018.89 1018.15 1017.44 1016.75
1025.18 1025.99 1026.70 1027.32 1027.84 1028.27 1028.61 1028.89 1029.11 1029.30 1029.46 1029.59 1029.69 1029.75 1029.76 1029.72 1029.62 1029.45 1029.21 1028.91 1028.54 1028.11 1027.62 1027.07 1026.45 1025.77 1025.04 1024.24 1023.39 1022.52 1021.62 1020.73 1019.87 1019.03 1018.22 1017.46 1016.72 1015.99
1025.40 1026.17 1026.85 1027.44 1027.92 1028.31 1028.61 1028.84 1029.02 1029.16 1029.28 1029.37 1029.45 1029.49 1029.51 1029.48 1029.39 1029.25 1029.04 1028.76 1028.41 1027.99 1027.49 1026.91 1026.26 1025.54 1024.75 1023.90 1023.00 1022.08 1021.15 1020.23 1019.33 1018.46 1017.63 1016.84 1016.06 1015.30
1025.66 1026.37 1027.00 1027.54 1027.98 1028.32 1028.58 1028.77 1028.91 1029.02 1029.10 1029.17 1029.22 1029.26 1029.27 1029.25 1029.18 1029.05 1028.86 1028.60 1028.26 1027.84 1027.33 1026.74 1026.06 1025.31 1024.49 1023.61 1022.68 1021.74 1020.79 1019.84 1018.92 1018.03 1017.18 1016.35 1015.53 1014.72
1025.94 1026.59 1027.17 1027.65 1028.05 1028.35 1028.57 1028.72 1028.83 1028.91 1028.97 1029.01 1029.05 1029.07 1029.08 1029.05 1028.98 1028.86 1028.68 1028.42 1028.08 1027.66 1027.15 1026.55 1025.87 1025.11 1024.28 1023.39 1022.46 1021.51 1020.55 1019.60 1018.68 1017.77 1016.89 1016.03 1015.18 1014.33
1026.21 1026.81 1027.34 1027.78 1028.13 1028.40 1028.60 1028.73 1028.81 1028.87 1028.90 1028.92 1028.94 1028.94 1028.93 1028.88 1028.80 1028.67 1028.48 1028.22 1027.88 1027.46 1026.96 1026.37 1025.69 1024.94 1024.13 1023.25 1022.34 1021.40 1020.45 1019.51 1018.58 1017.67 1016.78 1015.89 1015.01 1014.12
1026.46 1027.01 1027.50 1027.91 1028.23 1028.48 1028.65 1028.77 1028.83 1028.87 1028.89 1028.88 1028.87 1028.84 1028.80 1028.73 1028.62 1028.47 1028.26 1027.99 1027.66 1027.24 1026.75 1026.18 1025.53 1024.81 1024.02 1023.18 1022.30 1021.38 1020.46 1019.53 1018.61 1017.69 1016.79 1015.89 1014.99 1014.08
1026.65 1027.16 1027.62 1028.00 1028.31 1028.54 1028.70 1028.81 1028.87 1028.89 1028.88 1028.85 1028.81 1028.74 1028.66 1028.55 1028.41 1028.23 1028.01 1027.74 1027.40 1027.00 1026.54 1025.99 1025.38 1024.70 1023.96 1023.16 1022.31 1021.42 1020.52 1019.60 1018.69 1017.78 1016.87 1015.97 1015.06 1014.15
1026.78 1027.26 1027.68 1028.04 1028.34 1028.56 1028.72 1028.82 1028.86 1028.87 1028.84 1028.78 1028.70 1028.60 1028.48 1028.33 1028.16 1027.96 1027.73 1027.45 1027.13 1026.75 1026.31 1025.82 1025.25 1024.61 1023.91 1023.15 1022.33 1021.47 1020.59 1019.68 1018.77 1017.86 1016.96 1016.06 1015.17 1014.28
1026.85 1027.29 1027.68 1028.02 1028.30 1028.51 1028.66 1028.75 1028.79 1028.78 1028.72 1028.64 1028.53 1028.39 1028.24 1028.06 1027.87 1027.65 1027.41 1027.15 1026.84 1026.50 1026.10 1025.65 1025.13 1024.54 1023.88 1023.15 1022.36 1021.52 1020.64 1019.74 1018.83 1017.92 1017.02 1016.14 1015.26 1014.41
1026.90 1027.29 1027.64 1027.95 1028.20 1028.39 1028.52 1028.60 1028.62 1028.59 1028.52 1028.40 1028.27 1028.10 1027.92 1027.73 1027.52 1027.31 1027.08 1026.84 1026.57 1026.26 1025.91 1025.51 1025.04 1024.49 1023.87 1023.17 1022.40 1021.57 1020.69 1019.79 1018.88 1017.96 1017.07 1016.20 1015.36 1014.55
1026.94 1027.27 1027.56 1027.83 1028.04 1028.20 1028.31 1028.36 1028.35 1028.30 1028.21 1028.07 1027.91 1027.74 1027.55 1027.35 1027.15 1026.95 1026.75 1026.53 1026.31 1026.05 1025.76 1025.40 1024.98 1024.48 1023.89 1023.22 1022.47 1021.65 1020.77 1019.87 1018.95 1018.04 1017.15 1016.30 1015.49 1014.72
1026.98 1027.24 1027.47 1027.68 1027.84 1027.95 1028.02 1028.04 1028.00 1027.92 1027.80 1027.65 1027.48 1027.29 1027.10 1026.92 1026.74 1026.57 1026.40 1026.24 1026.06 1025.87 1025.63 1025.33 1024.96 1024.51 1023.97 1023.33 1022.60 1021.80 1020.94 1020.04 1019.12 1018.22 1017.34 1016.50 1015.72 1014.99
1027.02 1027.20 1027.36 1027.50 1027.60 1027.66 1027.67 1027.64 1027.56 1027.45 1027.31 1027.14 1026.96 1026.78 1026.60 1026.44 1026.29 1026.16 1026.04 1025.94 1025.82 1025.69 1025.52 1025.29 1024.98 1024.59 1024.10 1023.51 1022.82 1022.05 1021.22 1020.34 1019.45 1018.56 1017.69 1016.88 1016.11 1015.41
1027.04 1027.14 1027.23 1027.28 1027.31 1027.30 1027.25 1027.17 1027.05 1026.90 1026.72 1026.54 1026.36 1026.18 1026.02 1025.89 1025.78 1025.70 1025.65 1025.60 1025.56 1025.49 1025.39 1025.23 1025.00 1024.68 1024.26 1023.74 1023.11 1022.40 1021.62 1020.79 1019.94 1019.08 1018.24 1017.45 1016.70 1016.01
Thickness
5575 5576 5577 5577 5578 5580 5581 5580 5578 5574 5572 5571 5570 5572 5572 5571 5571 5570 5569 5568 5568 5567 5566 5566 5565 5563 5563 5562 5561 5560 5559 5558 5557 5556 5555 5554 5553 5551
5563 5565 5565 5565 5566 5568 5570 5570 5570 5568 5564 5563 5562 5562 5562 5561 5560 5560 5560 5559 5558 5557 5556 5555 5555 5554 5553 5552 5551 5550 5548 5547 5546 5545 5544 5543 5542 5540
5551 5553 5554 5554 5555 5557 5558 5559 5558 5557 5555 5553 5552 5552 5552 5551 5550 5549 5549 5548 5547 5546 5545 5544 5544 5543 5542 5540 5539 5538 5537 5535 5534 5533 5532 5530 5529 5528
5538 5540 5542 5544 5545 5545 5546 5547 5547 5547 5546 5543 5541 5541 5540 5539 5539 5538 5537 5536 5535 5535 5534 5533 5532 5531 5530 5528 5527 5526 5524 5523 5522 5520 5519 5517 5516 5515
5527 5529 5531 5532 5533 5534 5535 5535 5535 5535 5535 5534 5531 5529 5528 5528 5527 5526 5525 5524 5523 5523 5522 5521 5519 5518 5516 5515 5514 5513 5511 5510 5509 5507 5505 5503 5502 5501
5515 5517 5519 5520 5522 5523 5523 5524 5524 5523 5522 5521 5519 5517 5516 5515 5514 5513 5513 5512 5511 5510 5509 5508 5506 5504 5503 5502 5500 5499 5498 5497 5495 5493 5492 5490 5489 5487
5503 5505 5507 5509 5511 5512 5513 5513 5512 5511 5510 5509 5507 5506 5504 5502 5501 5500 5499 5499 5498 5497 5496 5495 5493 5492 5490 5488 5487 5486 5485 5484 5482 5480 5479 5477 5475 5474
5492 5493 5495 5497 5499 5501 5501 5501 5501 5500 5499 5497 5496 5495 5493 5491 5489 5487 5485 5484 5485 5484 5481 5481 5479 5478 5477 5475 5474 5472 5472 5470 5469 5468 5466 5464 5463 5461
5481 5482 5483 5485 5486 5487 5488 5489 5488 5488 5488 5487 5485 5484 5482 5480 5477 5474 5471 5470 5470 5469 5466 5468 5466 5465 5464 5462 5460 5459 5458 5457 5456 5455 5453 5452 5450 5448
5469 5470 5471 5472 5473 5474 5475 5475 5474 5474 5474 5474 5473 5472 5469 5467 5464 5462 5459 5457 5456 5454 5451 5452 5453 5452 5452 5449 5447 5445 5444 5443 5442 5441 5440 5439 5437 5436
5457 5458 5458 5459 5462 5462 5462 5461 5461 5460 5460 5459 5459 5457 5455 5453 5450 5447 5444 5442 5442 5441 5437 5436 5437 5437 5439 5439 5436 5433 5431 5430 5429 5428 5427 5425 5424 5423
5444 5445 5447 5447 5448 5448 5447 5447 5447 5447 5446 5444 5443 5441 5440 5438 5436 5433 5430 5427 5426 5426 5424 5420 5420 5418 5423 5427 5424 5422 5420 5418 5416 5414 5413 5411 5410 5409
5432 5433 5434 5435 5435 5435 5435 5434 5434 5434 5431 5429 5427 5426 5425 5423 5421 5418 5415 5413 5411 5410 5409 5405 5404 5402 5401 5407 5411 5409 5406 5405 5403 5402 5400 5399 5398 5397
5421 5422 5423 5423 5423 5422 5422 5421 5420 5419 5416 5414 5412 5411 5409 5408 5406 5404 5402 5399 5397 5396 5394 5391 5389 5388 5386 5387 5392 5395 5393 5391 5389 5389 5389 5388 5388 5387
5409 5410 5411 5411 5410 5409 5408 5407 5405 5403 5401 5399 5398 5397 5395 5393 5391 5390 5388 5386 5384 5382 5380 5378 5375 5373 5371 5371 5374 5377 5377 5379 5378 5377 5377 5377 5377 5378
5396 5397 5397 5397 5396 5395 5394 5392 5391 5389 5388 5386 5385 5383 5381 5379 5377 5375 5373 5371 5370 5369 5367 5364 5362 5359 5358 5358 5358 5361 5362 5362 5366 5365 5365 5367 5368 5368
5383 5382 5382 5382 5382 5381 5380 5379 5378 5376 5374 5373 5371 5369 5367 5366 5364 5361 5359 5357 5355 5355 5355 5353 5350 5348 5347 5346 5347 5349 5350 5350 5351 5353 5354 5358 5361 5360
5372 5371 5371 5370 5371 5370 5368 5367 5366 5364 5363 5361 5359 5357 5355 5353 5351 5348 5346 5344 5343 5343 5342 5341 5339 5339 5339 5340 5339 5338 5339 5339 5341 5342 5343 5346 5352 5354
5361 5360 5360 5359 5359 5358 5357 5356 5354 5353 5351 5349 5347 5345 5343 5341 5339 5337 5335 5333 5333 5332 5330 5329 5327 5326 5326 5331 5333 5330 5328 5330 5332 5334 5335 5336 5341 5345
5350 5350 5349 5348 5348 5347 5346 5344 5343 5341 5339 5338 5336 5333 5331 5330 5329 5327 5325 5323 5322 5321 5320 5319 5317 5316 5315 5317 5321 5323 5321 5321 5323 5325 5328 5330 5333 5336
5339 5338 5338 5337 5337 5336 5335 5333 5332 5331 5329 5327 5326 5324 5322 5320 5319 5317 5316 5315 5313 5312 5312 5312 5311 5309 5307 5307 5310 5315 5317 5316 5315 5316 5319 5321 5325 5329
5329 5328 5328 5327 5326 5325 5323 5322 5321 5320 5319 5318 5316 5314 5313 5311 5310 5309 5308 5307 5306 5305 5305 5305 5303 5301 5299 5300 5303 5307 5310 5312 5312 5312 5312 5313 5312 5317
5319 5319 5318 5317 5315 5314 5313 5312 5311 5311 5310 5308 5307 5306 5305 5304 5303 5302 5301 5300 5298 5298 5297 5297 5296 5295 5294 5294 5296 5299 5301 5303 5306 5308 5310 5309 5309 5311